Location: La Pernelle
(49.6188°N, 1.2999°W)
Time: 08:47:40
(UTC+00:00)

Lacrosse 5 - Pass Details

Date: 12 June 2021
Orbit: 715 x 724 km, 57.0° (Epoch: 21 July)

Event Time Altitude Azimuth Distance (km) Brightness Sun altitude
Rises 21:10:28 0° 303° (WNW) 3,125 6.9 -7.5°
Reaches altitude 10° 21:12:51 10° 304° (NW) 2,204 5.8 -7.7°
Maximum altitude 21:17:57 83° 33° (NNE) 728 1.9 -8.3°
Drops below altitude 10° 21:23:02 10° 122° (ESE) 2,200 3.8 -8.8°
Enters shadow 21:23:11 - 122° (ESE) 2,261 3.9 -8.8°
